Location: *
(49.6619°S, 177.4603°W)
Time: 06:06:24
(UTC+00:00)

Cosmos 2082 - Pass Details

Date: 31 January 2023
Orbit: 834 x 854 km, 71.0° (Epoch: 01 April)

Event Time Altitude Azimuth Distance (km) Brightness Sun altitude
Rises 08:33:11 0° 324° (NW) 3,402 6.8 -8.5°
Reaches altitude 10° 08:35:38 10° 322° (NW) 2,477 6.1 -8.8°
Maximum altitude 08:41:18 68° 239° (WSW) 928 4.2 -9.5°
Drops below altitude 10° 08:47:05 10° 155° (SSE) 2,516 6.4 -10.2°
Sets 08:49:35 0° 152° (SSE) 3,460 7.1 -10.5°
